owner,sensor,date,latitude,longitude,air_temperature,qcFlag 
TABS,ioos:station:wmo:42046:1,2002-08-01T10:09:00Z,27.8903,-94.0367,30.0,11144222 
TABS,ioos:station:wmo:42046:1,2002-08-01T10:39:00Z,27.8903,-94.0367,30.1,11144222 
TABS,ioos:station:wmo:42046:1,2002-08-01T11:09:00Z,27.8903,-94.0367,30.1,11144222 
TABS,ioos:station:wmo:42046:1,2002-08-01T11:39:00Z,27.8903,-94.0367,30.1,11144222 
TABS,ioos:station:wmo:42046:1,2002-08-01T14:39:00Z,27.8903,-94.0367,30.5,11144222 
TABS,ioos:station:wmo:42046:1,2002-08-01T15:39:00Z,27.8903,-94.0367,30.6,11144222 
TABS,ioos:station:wmo:42046:1,2002-08-01T17:09:00Z,27.8903,-94.0367,30.5,11144222 
TABS,ioos:station:wmo:42046:1,2002-08-01T19:09:00Z,27.8903,-94.0367,30.7,11144222 
TABS,ioos:station:wmo:42046:1,2002-08-01T21:39:00Z,27.8903,-94.0367,31.1,11144222 
TABS,ioos:station:wmo:42046:1,2002-08-01T22:09:00Z,27.8903,-94.0367,31.4,11144222 
TABS,ioos:station:wmo:42046:1,2002-08-01T23:09:00Z,27.8903,-94.0367,31.6,11144222 
TABS,ioos:station:wmo:42046:1,2002-08-02T00:39:00Z,27.8903,-94.0367,30.7,11144222 
TABS,ioos:station:wmo:42046:1,2002-08-02T01:39:00Z,27.8903,-94.0367,30.5,11144222 
TABS,ioos:station:wmo:42046:1,2002-08-02T02:09:00Z,27.8903,-94.0367,30.5,11144222 
TABS,ioos:station:wmo:42046:1,2002-08-02T03:39:00Z,27.8903,-94.0367,30.6,11144222 
TABS,ioos:station:wmo:42046:1,2002-08-02T04:09:00Z,27.8903,-94.0367,30.5,11144222 
TABS,ioos:station:wmo:42046:1,2002-08-02T04:39:00Z,27.8903,-94.0367,30.4,11144222 
TABS,ioos:station:wmo:42046:1,2002-08-02T06:39:00Z,27.8903,-94.0367,30.2,11144222 
TABS,ioos:station:wmo:42046:1,2002-08-02T07:09:00Z,27.8903,-94.0367,30.1,11144222 
TABS,ioos:station:wmo:42046:1,2002-08-02T10:39:00Z,27.8903,-94.0367,30.1,11144222 
TABS,ioos:station:wmo:42046:1,2002-08-02T11:09:00Z,27.8903,-94.0367,30.1,11144222 
TABS,ioos:station:wmo:42046:1,2002-08-02T11:39:00Z,27.8903,-94.0367,30.1,11144222 
TABS,ioos:station:wmo:42046:1,2002-08-02T12:39:00Z,27.8903,-94.0367,30.4,11144222 
TABS,ioos:station:wmo:42046:1,2002-08-02T13:09:00Z,27.8903,-94.0367,30.4,11144222 
TABS,ioos:station:wmo:42046:1,2002-08-02T14:09:00Z,27.8903,-94.0367,30.5,11144222 
TABS,ioos:station:wmo:42046:1,2002-08-02T16:09:00Z,27.8903,-94.0367,30.9,11144222 
TABS,ioos:station:wmo:42046:1,2002-08-02T20:09:00Z,27.8903,-94.0367,31.0,11144222 
TABS,ioos:station:wmo:42046:1,2002-08-02T20:39:00Z,27.8903,-94.0367,31.0,11144222 
TABS,ioos:station:wmo:42046:1,2002-08-02T22:09:00Z,27.8903,-94.0367,31.2,11144222 
TABS,ioos:station:wmo:42046:1,2002-08-03T00:39:00Z,27.8903,-94.0367,31.0,11144222 
TABS,ioos:station:wmo:42046:1,2002-08-03T01:09:00Z,27.8903,-94.0367,30.7,11144222 
TABS,ioos:station:wmo:42046:1,2002-08-03T01:39:00Z,27.8903,-94.0367,30.7,11144222 
TABS,ioos:station:wmo:42046:1,2002-08-03T04:09:00Z,27.8903,-94.0367,30.5,11144222 
TABS,ioos:station:wmo:42046:1,2002-08-03T04:39:00Z,27.8903,-94.0367,30.5,11144222 
TABS,ioos:station:wmo:42046:1,2002-08-03T06:09:00Z,27.8903,-94.0367,30.5,11144222 
TABS,ioos:station:wmo:42046:1,2002-08-03T06:39:00Z,27.8903,-94.0367,30.4,11144222 
TABS,ioos:station:wmo:42046:1,2002-08-03T07:09:00Z,27.8903,-94.0367,30.4,11144222 
TABS,ioos:station:wmo:42046:1,2002-08-03T07:39:00Z,27.8903,-94.0367,30.5,11144222 
TABS,ioos:station:wmo:42046:1,2002-08-03T08:09:00Z,27.8903,-94.0367,30.4,11144222 
TABS,ioos:station:wmo:42046:1,2002-08-03T08:39:00Z,27.8903,-94.0367,30.4,11144222 
TABS,ioos:station:wmo:42046:1,2002-08-03T09:09:00Z,27.8903,-94.0367,30.5,11144222 
TABS,ioos:station:wmo:42046:1,2002-08-03T09:39:00Z,27.8903,-94.0367,30.5,11144222 
TABS,ioos:station:wmo:42046:1,2002-08-03T11:09:00Z,27.8903,-94.0367,30.5,11144222 
TABS,ioos:station:wmo:42046:1,2002-08-03T11:39:00Z,27.8903,-94.0367,30.6,11144222 
TABS,ioos:station:wmo:42046:1,2002-08-03T12:09:00Z,27.8903,-94.0367,30.8,11144222 
TABS,ioos:station:wmo:42046:1,2002-08-03T12:39:00Z,27.8903,-94.0367,30.9,11144222 
TABS,ioos:station:wmo:42046:1,2002-08-03T15:09:00Z,27.8903,-94.0367,31.2,11144222 
TABS,ioos:station:wmo:42046:1,2002-08-03T15:39:00Z,27.8903,-94.0367,31.3,11144222 
TABS,ioos:station:wmo:42046:1,2002-08-03T16:39:00Z,27.8903,-94.0367,30.5,11144222 
TABS,ioos:station:wmo:42046:1,2002-08-03T17:09:00Z,27.8903,-94.0367,29.0,11144222 
TABS,ioos:station:wmo:42046:1,2002-08-03T18:39:00Z,27.8903,-94.0367,24.2,11144222 
TABS,ioos:station:wmo:42046:1,2002-08-03T19:39:00Z,27.8903,-94.0367,26.1,11144222 
TABS,ioos:station:wmo:42046:1,2002-08-03T20:09:00Z,27.8903,-94.0367,26.3,11144222 
TABS,ioos:station:wmo:42046:1,2002-08-03T20:39:00Z,27.8903,-94.0367,26.7,11144222 
TABS,ioos:station:wmo:42046:1,2002-08-03T21:39:00Z,27.8903,-94.0367,28.0,11144222 
TABS,ioos:station:wmo:42046:1,2002-08-03T22:09:00Z,27.8903,-94.0367,28.3,11144222 
TABS,ioos:station:wmo:42046:1,2002-08-03T23:09:00Z,27.8903,-94.0367,28.9,11144222 
TABS,ioos:station:wmo:42046:1,2002-08-04T00:09:00Z,27.8903,-94.0367,29.5,11144222 
TABS,ioos:station:wmo:42046:1,2002-08-04T00:39:00Z,27.8903,-94.0367,29.9,11144222 
TABS,ioos:station:wmo:42046:1,2002-08-04T02:39:00Z,27.8903,-94.0367,30.4,11144222 
TABS,ioos:station:wmo:42046:1,2002-08-04T03:09:00Z,27.8903,-94.0367,30.4,11144222 
TABS,ioos:station:wmo:42046:1,2002-08-04T03:39:00Z,27.8903,-94.0367,30.4,11144222 
TABS,ioos:station:wmo:42046:1,2002-08-04T04:09:00Z,27.8903,-94.0367,30.3,11144222 
TABS,ioos:station:wmo:42046:1,2002-08-04T04:39:00Z,27.8903,-94.0367,30.2,11144222 
TABS,ioos:station:wmo:42046:1,2002-08-04T05:09:00Z,27.8903,-94.0367,30.1,11144222 
TABS,ioos:station:wmo:42046:1,2002-08-04T06:09:00Z,27.8903,-94.0367,30.0,11144222 
TABS,ioos:station:wmo:42046:1,2002-08-04T06:39:00Z,27.8903,-94.0367,28.3,11144222 
TABS,ioos:station:wmo:42046:1,2002-08-04T07:39:00Z,27.8903,-94.0367,30.3,11144222 
TABS,ioos:station:wmo:42046:1,2002-08-04T08:39:00Z,27.8903,-94.0367,29.9,11144222 
TABS,ioos:station:wmo:42046:1,2002-08-04T09:39:00Z,27.8903,-94.0367,29.7,11144222 
TABS,ioos:station:wmo:42046:1,2002-08-04T10:39:00Z,27.8903,-94.0367,29.7,11144222 
TABS,ioos:station:wmo:42046:1,2002-08-04T11:39:00Z,27.8903,-94.0367,29.8,11144222 
TABS,ioos:station:wmo:42046:1,2002-08-04T12:09:00Z,27.8903,-94.0367,30.0,11144222 
TABS,ioos:station:wmo:42046:1,2002-08-04T13:09:00Z,27.8903,-94.0367,30.4,11144222 
TABS,ioos:station:wmo:42046:1,2002-08-04T14:09:00Z,27.8903,-94.0367,30.6,11144222 
TABS,ioos:station:wmo:42046:1,2002-08-04T15:09:00Z,27.8903,-94.0367,30.9,11144222 
TABS,ioos:station:wmo:42046:1,2002-08-04T15:39:00Z,27.8903,-94.0367,31.0,11144222 
TABS,ioos:station:wmo:42046:1,2002-08-04T16:09:00Z,27.8903,-94.0367,30.5,11144222 
TABS,ioos:station:wmo:42046:1,2002-08-04T17:09:00Z,27.8903,-94.0367,30.5,11144222 
TABS,ioos:station:wmo:42046:1,2002-08-04T18:09:00Z,27.8903,-94.0367,30.6,11144222 
TABS,ioos:station:wmo:42046:1,2002-08-04T20:39:00Z,27.8903,-94.0367,30.4,11144222 
TABS,ioos:station:wmo:42046:1,2002-08-04T22:09:00Z,27.8903,-94.0367,30.8,11144222 
TABS,ioos:station:wmo:42046:1,2002-08-05T02:09:00Z,27.8903,-94.0367,30.5,11144222 
TABS,ioos:station:wmo:42046:1,2002-08-05T02:39:00Z,27.8903,-94.0367,30.5,11144222 
TABS,ioos:station:wmo:42046:1,2002-08-05T03:39:00Z,27.8903,-94.0367,30.4,11144222 
TABS,ioos:station:wmo:42046:1,2002-08-05T07:09:00Z,27.8903,-94.0367,30.3,11144222 
TABS,ioos:station:wmo:42046:1,2002-08-05T08:09:00Z,27.8903,-94.0367,30.2,11144222 
TABS,ioos:station:wmo:42046:1,2002-08-05T09:09:00Z,27.8903,-94.0367,30.0,11144222 
TABS,ioos:station:wmo:42046:1,2002-08-05T11:09:00Z,27.8903,-94.0367,30.0,11144222 
TABS,ioos:station:wmo:42046:1,2002-08-05T12:09:00Z,27.8903,-94.0367,29.7,11144222 
TABS,ioos:station:wmo:42046:1,2002-08-05T12:39:00Z,27.8903,-94.0367,29.9,11144222 
TABS,ioos:station:wmo:42046:1,2002-08-05T13:09:00Z,27.8903,-94.0367,30.6,11144222 
TABS,ioos:station:wmo:42046:1,2002-08-05T14:39:00Z,27.8903,-94.0367,30.5,11144222 
TABS,ioos:station:wmo:42046:1,2002-08-05T15:09:00Z,27.8903,-94.0367,30.6,11144222 
TABS,ioos:station:wmo:42046:1,2002-08-05T16:09:00Z,27.8903,-94.0367,30.4,11144222 
TABS,ioos:station:wmo:42046:1,2002-08-05T16:39:00Z,27.8903,-94.0367,30.4,11144222 
TABS,ioos:station:wmo:42046:1,2002-08-05T17:09:00Z,27.8903,-94.0367,30.4,11144222 
TABS,ioos:station:wmo:42046:1,2002-08-05T17:39:00Z,27.8903,-94.0367,30.3,11144222 
TABS,ioos:station:wmo:42046:1,2002-08-05T18:09:00Z,27.8903,-94.0367,30.2,11144222 
TABS,ioos:station:wmo:42046:1,2002-08-05T18:39:00Z,27.8903,-94.0367,30.3,11144222 
TABS,ioos:station:wmo:42046:1,2002-08-05T19:09:00Z,27.8903,-94.0367,30.4,11144222 
TABS,ioos:station:wmo:42046:1,2002-08-05T21:09:00Z,27.8903,-94.0367,31.1,11144222 
TABS,ioos:station:wmo:42046:1,2002-08-05T22:09:00Z,27.8903,-94.0367,31.3,11144222 
TABS,ioos:station:wmo:42046:1,2002-08-05T22:39:00Z,27.8903,-94.0367,31.2,11144222 
TABS,ioos:station:wmo:42046:1,2002-08-06T01:09:00Z,27.8903,-94.0367,30.5,11144222 
TABS,ioos:station:wmo:42046:1,2002-08-06T01:39:00Z,27.8903,-94.0367,30.4,11144222 
TABS,ioos:station:wmo:42046:1,2002-08-06T03:09:00Z,27.8903,-94.0367,30.5,11144222 
TABS,ioos:station:wmo:42046:1,2002-08-06T04:09:00Z,27.8903,-94.0367,30.4,11144222 
TABS,ioos:station:wmo:42046:1,2002-08-06T06:39:00Z,27.8903,-94.0367,30.3,11144222 
TABS,ioos:station:wmo:42046:1,2002-08-06T07:09:00Z,27.8903,-94.0367,30.3,11144222 
TABS,ioos:station:wmo:42046:1,2002-08-06T09:09:00Z,27.8903,-94.0367,30.1,11144222 
TABS,ioos:station:wmo:42046:1,2002-08-06T10:39:00Z,27.8903,-94.0367,30.0,11144222 
TABS,ioos:station:wmo:42046:1,2002-08-06T11:09:00Z,27.8903,-94.0367,30.0,11144222 
TABS,ioos:station:wmo:42046:1,2002-08-06T12:09:00Z,27.8903,-94.0367,30.1,11144222 
TABS,ioos:station:wmo:42046:1,2002-08-06T12:39:00Z,27.8903,-94.0367,30.1,11144222 
TABS,ioos:station:wmo:42046:1,2002-08-06T14:39:00Z,27.8903,-94.0367,30.4,11144222 
TABS,ioos:station:wmo:42046:1,2002-08-06T15:09:00Z,27.8903,-94.0367,30.2,11144222 
TABS,ioos:station:wmo:42046:1,2002-08-06T15:39:00Z,27.8903,-94.0367,30.4,11144222 
TABS,ioos:station:wmo:42046:1,2002-08-06T16:09:00Z,27.8903,-94.0367,30.4,11144222 
TABS,ioos:station:wmo:42046:1,2002-08-06T17:39:00Z,27.8903,-94.0367,30.4,11144222 
TABS,ioos:station:wmo:42046:1,2002-08-06T18:09:00Z,27.8903,-94.0367,30.5,11144222 
TABS,ioos:station:wmo:42046:1,2002-08-06T18:39:00Z,27.8903,-94.0367,30.5,11144222 
TABS,ioos:station:wmo:42046:1,2002-08-06T20:09:00Z,27.8903,-94.0367,30.8,11144222 
TABS,ioos:station:wmo:42046:1,2002-08-06T20:39:00Z,27.8903,-94.0367,31.0,11144222 
TABS,ioos:station:wmo:42046:1,2002-08-06T21:39:00Z,27.8903,-94.0367,31.1,11144222 
TABS,ioos:station:wmo:42046:1,2002-08-06T22:39:00Z,27.8903,-94.0367,31.0,11144222 
TABS,ioos:station:wmo:42046:1,2002-08-06T23:09:00Z,27.8903,-94.0367,31.0,11144222 
TABS,ioos:station:wmo:42046:1,2002-08-07T00:09:00Z,27.8903,-94.0367,30.9,11144222 
TABS,ioos:station:wmo:42046:1,2002-08-07T00:39:00Z,27.8903,-94.0367,30.7,11144222 
TABS,ioos:station:wmo:42046:1,2002-08-07T01:09:00Z,27.8903,-94.0367,30.4,11144222 
TABS,ioos:station:wmo:42046:1,2002-08-07T02:09:00Z,27.8903,-94.0367,30.4,11144222 
TABS,ioos:station:wmo:42046:1,2002-08-07T02:39:00Z,27.8903,-94.0367,30.4,11144222 
TABS,ioos:station:wmo:42046:1,2002-08-07T03:39:00Z,27.8903,-94.0367,30.4,11144222 
TABS,ioos:station:wmo:42046:1,2002-08-07T04:09:00Z,27.8903,-94.0367,30.4,11144222 
TABS,ioos:station:wmo:42046:1,2002-08-07T04:39:00Z,27.8903,-94.0367,30.4,11144222 
TABS,ioos:station:wmo:42046:1,2002-08-07T06:39:00Z,27.8903,-94.0367,30.4,11144222 
TABS,ioos:station:wmo:42046:1,2002-08-07T07:39:00Z,27.8903,-94.0367,30.3,11144222 
TABS,ioos:station:wmo:42046:1,2002-08-07T08:09:00Z,27.8903,-94.0367,30.4,11144222 
TABS,ioos:station:wmo:42046:1,2002-08-07T08:39:00Z,27.8903,-94.0367,30.5,11144222 
TABS,ioos:station:wmo:42046:1,2002-08-07T12:09:00Z,27.8903,-94.0367,30.4,11144222 
TABS,ioos:station:wmo:42046:1,2002-08-07T12:39:00Z,27.8903,-94.0367,30.5,11144222 
TABS,ioos:station:wmo:42046:1,2002-08-07T13:39:00Z,27.8903,-94.0367,27.1,11144222 
TABS,ioos:station:wmo:42046:1,2002-08-07T15:39:00Z,27.8903,-94.0367,28.3,11144222 
TABS,ioos:station:wmo:42046:1,2002-08-07T16:09:00Z,27.8903,-94.0367,28.5,11144222 
TABS,ioos:station:wmo:42046:1,2002-08-07T18:09:00Z,27.8903,-94.0367,30.2,11144222 
TABS,ioos:station:wmo:42046:1,2002-08-07T18:39:00Z,27.8903,-94.0367,30.4,11144222 
TABS,ioos:station:wmo:42046:1,2002-08-07T20:09:00Z,27.8903,-94.0367,30.3,11144222 
TABS,ioos:station:wmo:42046:1,2002-08-07T21:39:00Z,27.8903,-94.0367,29.9,11144222 
TABS,ioos:station:wmo:42046:1,2002-08-07T22:09:00Z,27.8903,-94.0367,29.8,11144222 
TABS,ioos:station:wmo:42046:1,2002-08-07T22:39:00Z,27.8903,-94.0367,29.9,11144222 
TABS,ioos:station:wmo:42046:1,2002-08-08T00:09:00Z,27.8903,-94.0367,30.0,11144222 
TABS,ioos:station:wmo:42046:1,2002-08-08T00:39:00Z,27.8903,-94.0367,30.0,11144222 
TABS,ioos:station:wmo:42046:1,2002-08-08T01:09:00Z,27.8903,-94.0367,29.8,11144222 
TABS,ioos:station:wmo:42046:1,2002-08-08T05:09:00Z,27.8903,-94.0367,30.0,11144222 
TABS,ioos:station:wmo:42046:1,2002-08-08T05:39:00Z,27.8903,-94.0367,30.0,11144222 
TABS,ioos:station:wmo:42046:1,2002-08-08T09:39:00Z,27.8903,-94.0367,29.7,11144222 
TABS,ioos:station:wmo:42046:1,2002-08-08T10:09:00Z,27.8903,-94.0367,28.9,11144222 
TABS,ioos:station:wmo:42046:1,2002-08-08T17:09:00Z,27.8903,-94.0367,29.6,11144222 
TABS,ioos:station:wmo:42046:1,2002-08-08T18:09:00Z,27.8903,-94.0367,29.6,11144222 
TABS,ioos:station:wmo:42046:1,2002-08-08T19:09:00Z,27.8903,-94.0367,29.9,11144222 
TABS,ioos:station:wmo:42046:1,2002-08-08T21:09:00Z,27.8903,-94.0367,30.5,11144222 
TABS,ioos:station:wmo:42046:1,2002-08-08T21:39:00Z,27.8903,-94.0367,30.9,11144222 
TABS,ioos:station:wmo:42046:1,2002-08-08T22:09:00Z,27.8903,-94.0367,30.8,11144222 
TABS,ioos:station:wmo:42046:1,2002-08-08T23:39:00Z,27.8903,-94.0367,30.4,11144222 
TABS,ioos:station:wmo:42046:1,2002-08-09T00:09:00Z,27.8903,-94.0367,30.6,11144222 
TABS,ioos:station:wmo:42046:1,2002-08-09T01:09:00Z,27.8903,-94.0367,30.4,11144222 
TABS,ioos:station:wmo:42046:1,2002-08-09T04:09:00Z,27.8903,-94.0367,30.4,11144222 
TABS,ioos:station:wmo:42046:1,2002-08-09T04:39:00Z,27.8903,-94.0367,30.4,11144222 
TABS,ioos:station:wmo:42046:1,2002-08-09T05:39:00Z,27.8903,-94.0367,30.4,11144222 
TABS,ioos:station:wmo:42046:1,2002-08-09T08:39:00Z,27.8903,-94.0367,30.4,11144222 
TABS,ioos:station:wmo:42046:1,2002-08-09T09:09:00Z,27.8903,-94.0367,30.4,11144222 
TABS,ioos:station:wmo:42046:1,2002-08-09T09:39:00Z,27.8903,-94.0367,30.3,11144222 
TABS,ioos:station:wmo:42046:1,2002-08-09T10:09:00Z,27.8903,-94.0367,30.3,11144222 
TABS,ioos:station:wmo:42046:1,2002-08-09T11:39:00Z,27.8903,-94.0367,30.4,11144222 
TABS,ioos:station:wmo:42046:1,2002-08-09T12:09:00Z,27.8903,-94.0367,30.1,11144222 
TABS,ioos:station:wmo:42046:1,2002-08-09T12:39:00Z,27.8903,-94.0367,30.4,11144222 
TABS,ioos:station:wmo:42046:1,2002-08-09T13:39:00Z,27.8903,-94.0367,30.9,11144222 
TABS,ioos:station:wmo:42046:1,2002-08-09T14:09:00Z,27.8903,-94.0367,31.0,11144222 
TABS,ioos:station:wmo:42046:1,2002-08-09T16:09:00Z,27.8903,-94.0367,30.6,11144222 
TABS,ioos:station:wmo:42046:1,2002-08-09T17:09:00Z,27.8903,-94.0367,31.3,11144222 
TABS,ioos:station:wmo:42046:1,2002-08-09T17:39:00Z,27.8903,-94.0367,31.2,11144222 
TABS,ioos:station:wmo:42046:1,2002-08-09T18:39:00Z,27.8903,-94.0367,31.1,11144222 
TABS,ioos:station:wmo:42046:1,2002-08-09T19:39:00Z,27.8903,-94.0367,31.1,11144222 
TABS,ioos:station:wmo:42046:1,2002-08-09T21:09:00Z,27.8903,-94.0367,31.3,11144222 
TABS,ioos:station:wmo:42046:1,2002-08-09T22:09:00Z,27.8903,-94.0367,31.4,11144222 
TABS,ioos:station:wmo:42046:1,2002-08-09T22:39:00Z,27.8903,-94.0367,31.5,11144222 
TABS,ioos:station:wmo:42046:1,2002-08-09T23:09:00Z,27.8903,-94.0367,31.3,11144222 
TABS,ioos:station:wmo:42046:1,2002-08-09T23:39:00Z,27.8903,-94.0367,31.4,11144222 
TABS,ioos:station:wmo:42046:1,2002-08-10T00:39:00Z,27.8903,-94.0367,30.9,11144222 
TABS,ioos:station:wmo:42046:1,2002-08-10T01:39:00Z,27.8903,-94.0367,30.3,11144222 
TABS,ioos:station:wmo:42046:1,2002-08-10T02:09:00Z,27.8903,-94.0367,30.6,11144222 
TABS,ioos:station:wmo:42046:1,2002-08-10T03:09:00Z,27.8903,-94.0367,30.7,11144222 
TABS,ioos:station:wmo:42046:1,2002-08-10T05:09:00Z,27.8903,-94.0367,30.6,11144222 
TABS,ioos:station:wmo:42046:1,2002-08-10T05:39:00Z,27.8903,-94.0367,30.6,11144222 
TABS,ioos:station:wmo:42046:1,2002-08-10T06:39:00Z,27.8903,-94.0367,30.4,11144222 
TABS,ioos:station:wmo:42046:1,2002-08-10T07:09:00Z,27.8903,-94.0367,30.4,11144222 
TABS,ioos:station:wmo:42046:1,2002-08-10T07:39:00Z,27.8903,-94.0367,30.6,11144222 
TABS,ioos:station:wmo:42046:1,2002-08-10T08:39:00Z,27.8903,-94.0367,30.4,11144222 
TABS,ioos:station:wmo:42046:1,2002-08-10T09:09:00Z,27.8903,-94.0367,30.4,11144222 
TABS,ioos:station:wmo:42046:1,2002-08-10T09:39:00Z,27.8903,-94.0367,30.4,11144222 
TABS,ioos:station:wmo:42046:1,2002-08-10T10:09:00Z,27.8903,-94.0367,29.1,11144222 
TABS,ioos:station:wmo:42046:1,2002-08-10T11:09:00Z,27.8903,-94.0367,28.4,11144222 
TABS,ioos:station:wmo:42046:1,2002-08-10T12:39:00Z,27.8903,-94.0367,28.1,11144222 
TABS,ioos:station:wmo:42046:1,2002-08-10T13:09:00Z,27.8903,-94.0367,28.0,11144222 
TABS,ioos:station:wmo:42046:1,2002-08-10T14:39:00Z,27.8903,-94.0367,27.8,11144222 
TABS,ioos:station:wmo:42046:1,2002-08-10T15:09:00Z,27.8903,-94.0367,28.4,11144222 
TABS,ioos:station:wmo:42046:1,2002-08-10T16:39:00Z,27.8903,-94.0367,28.4,11144222 
TABS,ioos:station:wmo:42046:1,2002-08-10T17:39:00Z,27.8903,-94.0367,28.1,11144222 
TABS,ioos:station:wmo:42046:1,2002-08-10T19:09:00Z,27.8903,-94.0367,29.1,11144222 
TABS,ioos:station:wmo:42046:1,2002-08-10T20:09:00Z,27.8903,-94.0367,29.4,11144222 
TABS,ioos:station:wmo:42046:1,2002-08-10T23:39:00Z,27.8903,-94.0367,30.1,11144222 
TABS,ioos:station:wmo:42046:1,2002-08-11T00:39:00Z,27.8903,-94.0367,29.4,11144222 
TABS,ioos:station:wmo:42046:1,2002-08-11T01:09:00Z,27.8903,-94.0367,28.9,11144222 
TABS,ioos:station:wmo:42046:1,2002-08-11T01:39:00Z,27.8903,-94.0367,29.5,11144222 
TABS,ioos:station:wmo:42046:1,2002-08-11T03:09:00Z,27.8903,-94.0367,30.0,11144222 
TABS,ioos:station:wmo:42046:1,2002-08-11T05:09:00Z,27.8903,-94.0367,30.5,11144222 
TABS,ioos:station:wmo:42046:1,2002-08-11T06:39:00Z,27.8903,-94.0367,30.4,11144222 
TABS,ioos:station:wmo:42046:1,2002-08-11T09:39:00Z,27.8903,-94.0367,30.2,11144222 
TABS,ioos:station:wmo:42046:1,2002-08-11T12:39:00Z,27.8903,-94.0367,30.4,11144222 
TABS,ioos:station:wmo:42046:1,2002-08-11T13:09:00Z,27.8903,-94.0367,30.6,11144222 
TABS,ioos:station:wmo:42046:1,2002-08-11T13:39:00Z,27.8903,-94.0367,30.8,11144222 
TABS,ioos:station:wmo:42046:1,2002-08-11T14:09:00Z,27.8903,-94.0367,30.7,11144222 
TABS,ioos:station:wmo:42046:1,2002-08-11T14:39:00Z,27.8903,-94.0367,30.7,11144222 
TABS,ioos:station:wmo:42046:1,2002-08-11T15:09:00Z,27.8903,-94.0367,30.7,11144222 
TABS,ioos:station:wmo:42046:1,2002-08-11T15:39:00Z,27.8903,-94.0367,30.1,11144222 
TABS,ioos:station:wmo:42046:1,2002-08-11T16:39:00Z,27.8903,-94.0367,30.4,11144222 
TABS,ioos:station:wmo:42046:1,2002-08-11T19:39:00Z,27.8903,-94.0367,30.2,11144222 
TABS,ioos:station:wmo:42046:1,2002-08-11T20:09:00Z,27.8903,-94.0367,30.2,11144222 
TABS,ioos:station:wmo:42046:1,2002-08-11T20:39:00Z,27.8903,-94.0367,30.5,11144222 
TABS,ioos:station:wmo:42046:1,2002-08-11T22:09:00Z,27.8903,-94.0367,29.8,11144222 
TABS,ioos:station:wmo:42046:1,2002-08-12T00:09:00Z,27.8903,-94.0367,30.0,11144222 
TABS,ioos:station:wmo:42046:1,2002-08-12T00:39:00Z,27.8903,-94.0367,29.8,11144222 
TABS,ioos:station:wmo:42046:1,2002-08-12T01:39:00Z,27.8903,-94.0367,29.5,11144222 
TABS,ioos:station:wmo:42046:1,2002-08-12T03:39:00Z,27.8903,-94.0367,29.4,11144222 
TABS,ioos:station:wmo:42046:1,2002-08-12T04:09:00Z,27.8903,-94.0367,29.4,11144222 
TABS,ioos:station:wmo:42046:1,2002-08-12T05:09:00Z,27.8903,-94.0367,29.6,11144222 
TABS,ioos:station:wmo:42046:1,2002-08-12T07:09:00Z,27.8903,-94.0367,29.8,11144222 
TABS,ioos:station:wmo:42046:1,2002-08-12T08:39:00Z,27.8903,-94.0367,29.9,11144222 
TABS,ioos:station:wmo:42046:1,2002-08-12T09:39:00Z,27.8903,-94.0367,29.9,11144222 
TABS,ioos:station:wmo:42046:1,2002-08-12T11:09:00Z,27.8903,-94.0367,29.0,11144222 
TABS,ioos:station:wmo:42046:1,2002-08-12T16:39:00Z,27.8903,-94.0367,27.8,11144222 
TABS,ioos:station:wmo:42046:1,2002-08-12T18:39:00Z,27.8903,-94.0367,28.8,11144222 
TABS,ioos:station:wmo:42046:1,2002-08-12T19:39:00Z,27.8903,-94.0367,29.3,11144222 
TABS,ioos:station:wmo:42046:1,2002-08-12T21:39:00Z,27.8903,-94.0367,28.1,11144222 
TABS,ioos:station:wmo:42046:1,2002-08-13T01:09:00Z,27.8903,-94.0367,29.3,11144222 
TABS,ioos:station:wmo:42046:1,2002-08-13T04:09:00Z,27.8903,-94.0367,29.5,11144222 
TABS,ioos:station:wmo:42046:1,2002-08-13T08:09:00Z,27.8903,-94.0367,29.8,11144222 
TABS,ioos:station:wmo:42046:1,2002-08-13T13:09:00Z,27.8903,-94.0367,30.3,11144222 
TABS,ioos:station:wmo:42046:1,2002-08-13T14:39:00Z,27.8903,-94.0367,30.6,11144222 
TABS,ioos:station:wmo:42046:1,2002-08-13T15:39:00Z,27.8903,-94.0367,30.8,11144222 
TABS,ioos:station:wmo:42046:1,2002-08-13T16:39:00Z,27.8903,-94.0367,29.9,11144222 
TABS,ioos:station:wmo:42046:1,2002-08-13T17:09:00Z,27.8903,-94.0367,29.4,11144222 
TABS,ioos:station:wmo:42046:1,2002-08-13T19:39:00Z,27.8903,-94.0367,28.7,11144222 
TABS,ioos:station:wmo:42046:1,2002-08-13T20:09:00Z,27.8903,-94.0367,29.5,11144222 
TABS,ioos:station:wmo:42046:1,2002-08-13T20:39:00Z,27.8903,-94.0367,30.4,11144222 
TABS,ioos:station:wmo:42046:1,2002-08-14T01:09:00Z,27.8903,-94.0367,30.0,11144222 
TABS,ioos:station:wmo:42046:1,2002-08-14T05:09:00Z,27.8903,-94.0367,30.0,11144222 
TABS,ioos:station:wmo:42046:1,2002-08-14T07:09:00Z,27.8903,-94.0367,30.4,11144222 
TABS,ioos:station:wmo:42046:1,2002-08-14T08:09:00Z,27.8903,-94.0367,29.7,11144222 
TABS,ioos:station:wmo:42046:1,2002-08-14T09:09:00Z,27.8903,-94.0367,30.4,11144222 
TABS,ioos:station:wmo:42046:1,2002-08-14T12:09:00Z,27.8903,-94.0367,29.0,11144222 
TABS,ioos:station:wmo:42046:1,2002-08-14T12:39:00Z,27.8903,-94.0367,29.0,11144222 
TABS,ioos:station:wmo:42046:1,2002-08-14T14:09:00Z,27.8903,-94.0367,28.8,11144222 
TABS,ioos:station:wmo:42046:1,2002-08-14T15:09:00Z,27.8903,-94.0367,29.1,11144222 
TABS,ioos:station:wmo:42046:1,2002-08-14T16:39:00Z,27.8903,-94.0367,26.7,11144222 
TABS,ioos:station:wmo:42046:1,2002-08-14T17:39:00Z,27.8903,-94.0367,23.9,11144222 
TABS,ioos:station:wmo:42046:1,2002-08-14T19:09:00Z,27.8903,-94.0367,25.3,11144222 
TABS,ioos:station:wmo:42046:1,2002-08-14T21:09:00Z,27.8903,-94.0367,26.7,11144222 
TABS,ioos:station:wmo:42046:1,2002-08-14T21:39:00Z,27.8903,-94.0367,27.2,11144222 
TABS,ioos:station:wmo:42046:1,2002-08-14T22:09:00Z,27.8903,-94.0367,27.3,11144222 
TABS,ioos:station:wmo:42046:1,2002-08-14T22:39:00Z,27.8903,-94.0367,27.8,11144222 
TABS,ioos:station:wmo:42046:1,2002-08-15T00:09:00Z,27.8903,-94.0367,28.2,11144222 
TABS,ioos:station:wmo:42046:1,2002-08-15T02:39:00Z,27.8903,-94.0367,29.2,11144222 
TABS,ioos:station:wmo:42046:1,2002-08-15T05:39:00Z,27.8903,-94.0367,29.4,11144222 
TABS,ioos:station:wmo:42046:1,2002-08-15T08:39:00Z,27.8903,-94.0367,29.9,11144222 
TABS,ioos:station:wmo:42046:1,2002-08-15T09:09:00Z,27.8903,-94.0367,30.0,11144222 
TABS,ioos:station:wmo:42046:1,2002-08-15T09:39:00Z,27.8903,-94.0367,30.1,11144222 
TABS,ioos:station:wmo:42046:1,2002-08-15T10:39:00Z,27.8903,-94.0367,30.2,11144222 
TABS,ioos:station:wmo:42046:1,2002-08-15T12:09:00Z,27.8903,-94.0367,30.4,11144222 
TABS,ioos:station:wmo:42046:1,2002-08-15T14:39:00Z,27.8903,-94.0367,30.6,11144222 
TABS,ioos:station:wmo:42046:1,2002-08-15T15:39:00Z,27.8903,-94.0367,30.7,11144222 
TABS,ioos:station:wmo:42046:1,2002-08-15T17:09:00Z,27.8903,-94.0367,30.7,11144222 
TABS,ioos:station:wmo:42046:1,2002-08-15T18:09:00Z,27.8903,-94.0367,30.8,11144222 
TABS,ioos:station:wmo:42046:1,2002-08-15T19:09:00Z,27.8903,-94.0367,30.8,11144222 
TABS,ioos:station:wmo:42046:1,2002-08-15T21:09:00Z,27.8903,-94.0367,30.8,11144222 
TABS,ioos:station:wmo:42046:1,2002-08-16T01:39:00Z,27.8903,-94.0367,30.6,11144222 
TABS,ioos:station:wmo:42046:1,2002-08-16T09:09:00Z,27.8903,-94.0367,30.4,11144222 
TABS,ioos:station:wmo:42046:1,2002-08-16T11:09:00Z,27.8903,-94.0367,30.4,11144222 